DAL2815 KATL-KEYW

Flight info

Callsign DAL2815
Flight time 1h 23m
Altitude 35000
Route BANNG3 LUCKK BULZI KRAKN1
Aircraft A319/M-SDE3FGHIRWY/LB1

Departure

Time 2026-05-05 00:32
Airport Hartsfield Jackson Atlanta International Airport (KATL)

Arrival

Time 2026-05-05 01:55
Airport Key West International Airport (KEYW)
Time Latitude Longitude Altitude Speed Heading
2026-05-05 00:13 33.63793 -84.43644 1006 ft 0 kts 90°
2026-05-05 00:22 33.63793 -84.43657 1006 ft 3 kts 93°
2026-05-05 00:23 33.63795 -84.43681 1006 ft 3 kts 103°
2026-05-05 00:23 33.63801 -84.43704 1006 ft 3 kts 123°
2026-05-05 00:23 33.63813 -84.43719 1006 ft 3 kts 165°
2026-05-05 00:23 33.63823 -84.43721 1006 ft 1 kts 180°
2026-05-05 00:24 33.63825 -84.43721 1006 ft 0 kts 180°
2026-05-05 00:25 33.63824 -84.43721 1006 ft 0 kts 180°
2026-05-05 00:25 33.63788 -84.43721 1006 ft 11 kts 180°
2026-05-05 00:26 33.63704 -84.43718 1006 ft 12 kts 169°
2026-05-05 00:26 33.63664 -84.43630 1006 ft 14 kts 94°
2026-05-05 00:26 33.63664 -84.43511 1006 ft 15 kts 90°
2026-05-05 00:26 33.63664 -84.43387 1006 ft 15 kts 90°
2026-05-05 00:27 33.63664 -84.43260 1006 ft 16 kts 90°
2026-05-05 00:27 33.63663 -84.43112 1006 ft 18 kts 90°
2026-05-05 00:27 33.63664 -84.42957 1006 ft 19 kts 90°
2026-05-05 00:27 33.63664 -84.42800 1006 ft 19 kts 90°
2026-05-05 00:28 33.63655 -84.42646 1007 ft 19 kts 90°
2026-05-05 00:28 33.63655 -84.42490 1007 ft 19 kts 90°
2026-05-05 00:28 33.63654 -84.42318 1007 ft 21 kts 89°
2026-05-05 00:28 33.63655 -84.42141 1007 ft 21 kts 90°
2026-05-05 00:29 33.63656 -84.41963 1006 ft 22 kts 90°
2026-05-05 00:29 33.63656 -84.41782 1006 ft 22 kts 90°
2026-05-05 00:29 33.63655 -84.41600 1006 ft 22 kts 90°
2026-05-05 00:29 33.63654 -84.41416 1006 ft 22 kts 90°
2026-05-05 00:30 33.63654 -84.41231 1006 ft 22 kts 90°
2026-05-05 00:30 33.63655 -84.41047 1006 ft 22 kts 90°
2026-05-05 00:30 33.63616 -84.40912 1006 ft 17 kts 159°
2026-05-05 00:30 33.63510 -84.40909 1007 ft 13 kts 181°
2026-05-05 00:31 33.63470 -84.40977 1007 ft 12 kts 272°
2026-05-05 00:31 33.63470 -84.41185 1005 ft 59 kts 270°
2026-05-05 00:31 33.63471 -84.42023 1007 ft 139 kts 270°
2026-05-05 00:31 33.63475 -84.43409 1240 ft 177 kts 268°
2026-05-05 00:32 33.63475 -84.44902 1997 ft 182 kts 266°
2026-05-05 00:32 33.63469 -84.46438 2795 ft 185 kts 266°
2026-05-05 00:32 33.63466 -84.48029 3223 ft 202 kts 266°
2026-05-05 00:32 33.63461 -84.49828 3475 ft 229 kts 266°
2026-05-05 00:33 33.63451 -84.51841 3881 ft 254 kts 267°
2026-05-05 00:33 33.63445 -84.54014 4599 ft 264 kts 267°
2026-05-05 00:33 33.63442 -84.56238 5530 ft 268 kts 268°
2026-05-05 00:33 33.63446 -84.58485 6474 ft 271 kts 268°
2026-05-05 00:34 33.63448 -84.60751 7373 ft 273 kts 268°
2026-05-05 00:34 33.63311 -84.63026 8138 ft 275 kts 256°
2026-05-05 00:34 33.62625 -84.65159 9027 ft 276 kts 239°
2026-05-05 00:34 33.61885 -84.66398 9624 ft 277 kts 228°
2026-05-05 00:35 33.60393 -84.67886 10448 ft 282 kts 212°
2026-05-05 00:35 33.58607 -84.68904 11224 ft 288 kts 200°
2026-05-05 00:35 33.55957 -84.69372 12236 ft 297 kts 179°
2026-05-05 00:35 33.54561 -84.69172 12748 ft 301 kts 173°
2026-05-05 00:36 33.52481 -84.68767 13520 ft 305 kts 173°
2026-05-05 00:36 33.50371 -84.68362 14233 ft 309 kts 173°
2026-05-05 00:36 33.48238 -84.67960 14922 ft 312 kts 174°
2026-05-05 00:36 33.46083 -84.67559 15596 ft 315 kts 174°
2026-05-05 00:37 33.43903 -84.67149 16271 ft 319 kts 174°
2026-05-05 00:37 33.41722 -84.66584 16929 ft 325 kts 165°
2026-05-05 00:37 33.39557 -84.65530 17142 ft 347 kts 159°
2026-05-05 00:37 33.37296 -84.64321 17354 ft 364 kts 159°
2026-05-05 00:38 33.34968 -84.63052 17889 ft 370 kts 159°
2026-05-05 00:38 33.32642 -84.61778 18466 ft 375 kts 159°
2026-05-05 00:38 33.30262 -84.60477 18997 ft 379 kts 159°
2026-05-05 00:38 33.27849 -84.59162 19539 ft 383 kts 159°
2026-05-05 00:39 33.25413 -84.57840 20075 ft 387 kts 159°
2026-05-05 00:39 33.22945 -84.56508 20601 ft 391 kts 159°
2026-05-05 00:39 33.20454 -84.55170 21152 ft 395 kts 159°
2026-05-05 00:39 33.17938 -84.53821 21673 ft 399 kts 160°
2026-05-05 00:40 33.15391 -84.52458 22195 ft 403 kts 160°
2026-05-05 00:40 33.12823 -84.51085 22705 ft 407 kts 160°
2026-05-05 00:40 33.10227 -84.49695 23221 ft 411 kts 160°
2026-05-05 00:40 33.07608 -84.48291 23706 ft 415 kts 160°
2026-05-05 00:41 33.04962 -84.46875 24134 ft 418 kts 160°
2026-05-05 00:41 33.02297 -84.45445 24527 ft 422 kts 160°
2026-05-05 00:41 32.99610 -84.44001 24911 ft 425 kts 160°
2026-05-05 00:41 32.96843 -84.42773 25311 ft 424 kts 169°
2026-05-05 00:42 32.93958 -84.42137 25709 ft 420 kts 180°
2026-05-05 00:42 32.91047 -84.42030 26111 ft 419 kts 185°
2026-05-05 00:42 32.88119 -84.41991 26512 ft 422 kts 184°
2026-05-05 00:42 32.85174 -84.41941 26903 ft 425 kts 184°
2026-05-05 00:43 32.82209 -84.41879 27294 ft 427 kts 184°
2026-05-05 00:43 32.79226 -84.41813 27678 ft 430 kts 184°
2026-05-05 00:43 32.76225 -84.41746 28056 ft 433 kts 185°
2026-05-05 00:43 32.73203 -84.41682 28384 ft 437 kts 185°
2026-05-05 00:44 32.70156 -84.41619 28734 ft 440 kts 185°
2026-05-05 00:44 32.67086 -84.41560 29105 ft 442 kts 185°
2026-05-05 00:44 32.63997 -84.41505 29460 ft 445 kts 185°
2026-05-05 00:44 32.60895 -84.41446 29824 ft 448 kts 185°
2026-05-05 00:45 32.57767 -84.41387 30166 ft 450 kts 185°
2026-05-05 00:45 32.54623 -84.41319 30440 ft 453 kts 185°
2026-05-05 00:45 32.51461 -84.41255 30695 ft 456 kts 185°
2026-05-05 00:45 32.48275 -84.41192 30906 ft 460 kts 186°
2026-05-05 00:46 32.45061 -84.41133 31090 ft 464 kts 186°
2026-05-05 00:46 32.41818 -84.41068 31320 ft 468 kts 186°
2026-05-05 00:46 32.38551 -84.41000 31547 ft 471 kts 186°
2026-05-05 00:46 32.35270 -84.40926 31881 ft 472 kts 186°
2026-05-05 00:47 32.31983 -84.40850 32207 ft 473 kts 187°
2026-05-05 00:47 32.28719 -84.40587 32510 ft 482 kts 179°
2026-05-05 00:47 32.25394 -84.40006 32824 ft 483 kts 179°
2026-05-05 00:47 32.22063 -84.39426 33103 ft 484 kts 180°
2026-05-05 00:48 32.18675 -84.38839 33345 ft 488 kts 180°
2026-05-05 00:48 32.15350 -84.38257 33612 ft 490 kts 180°
2026-05-05 00:48 32.11974 -84.37665 33912 ft 491 kts 180°
2026-05-05 00:48 32.08585 -84.37069 34194 ft 493 kts 180°
2026-05-05 00:49 32.05151 -84.36460 34488 ft 493 kts 180°
2026-05-05 00:49 32.01758 -84.35863 34765 ft 493 kts 180°
2026-05-05 00:49 31.98407 -84.35271 34983 ft 494 kts 180°
2026-05-05 00:50 31.91681 -84.34087 35045 ft 484 kts 180°
2026-05-05 00:50 31.85029 -84.32924 35047 ft 483 kts 180°
2026-05-05 00:51 31.78386 -84.31775 35053 ft 482 kts 180°
2026-05-05 00:51 31.71742 -84.30627 35057 ft 483 kts 180°
2026-05-05 00:52 31.65097 -84.29476 35019 ft 483 kts 180°
2026-05-05 00:52 31.58443 -84.28317 35061 ft 482 kts 180°
2026-05-05 00:53 31.51810 -84.27165 35078 ft 481 kts 180°
2026-05-05 00:53 31.45190 -84.26022 35071 ft 480 kts 180°
2026-05-05 00:54 31.38582 -84.24889 35012 ft 480 kts 180°
2026-05-05 00:54 31.31975 -84.23754 35037 ft 480 kts 180°
2026-05-05 00:55 31.25409 -84.22625 35032 ft 480 kts 180°
2026-05-05 00:55 31.18798 -84.21492 35039 ft 480 kts 180°
2026-05-05 00:56 31.12181 -84.20363 35050 ft 481 kts 180°
2026-05-05 00:56 31.05554 -84.19224 35043 ft 483 kts 180°
2026-05-05 00:57 30.98904 -84.18077 35047 ft 483 kts 180°
2026-05-05 00:57 30.92256 -84.16940 35053 ft 483 kts 180°
2026-05-05 00:58 30.85606 -84.15803 35058 ft 483 kts 180°
2026-05-05 00:58 30.78950 -84.14671 35025 ft 483 kts 181°
2026-05-05 00:59 30.72290 -84.13542 35031 ft 483 kts 180°
2026-05-05 00:59 30.65625 -84.12409 35035 ft 484 kts 181°
2026-05-05 01:00 30.58962 -84.11281 35029 ft 484 kts 181°
2026-05-05 01:00 30.52300 -84.10154 35033 ft 484 kts 181°
2026-05-05 01:01 30.45632 -84.09029 35035 ft 484 kts 181°
2026-05-05 01:01 30.38979 -84.07703 35042 ft 493 kts 172°
2026-05-05 01:02 30.32645 -84.04511 35041 ft 508 kts 155°
2026-05-05 01:02 30.26531 -84.00420 35035 ft 508 kts 155°
2026-05-05 01:03 30.20366 -83.96334 35048 ft 513 kts 156°
2026-05-05 01:03 30.14172 -83.92246 35054 ft 513 kts 155°
2026-05-05 01:04 30.07987 -83.88157 35086 ft 511 kts 156°
2026-05-05 01:04 29.98764 -83.82065 35084 ft 508 kts 156°
2026-05-05 01:05 29.92632 -83.78021 35040 ft 507 kts 156°
2026-05-05 01:05 29.86502 -83.73992 35039 ft 507 kts 156°
2026-05-05 01:06 29.80361 -83.69963 35040 ft 508 kts 156°
2026-05-05 01:06 29.74223 -83.65935 35037 ft 508 kts 156°
2026-05-05 01:07 29.68076 -83.61903 35037 ft 509 kts 156°
2026-05-05 01:07 29.61955 -83.57894 35042 ft 512 kts 156°
2026-05-05 01:08 29.55764 -83.53849 35049 ft 512 kts 156°
2026-05-05 01:08 29.49706 -83.49904 35077 ft 513 kts 156°
2026-05-05 01:09 29.43510 -83.45872 35072 ft 511 kts 156°
2026-05-05 01:09 29.37344 -83.41854 35029 ft 509 kts 156°
2026-05-05 01:10 29.31185 -83.37859 35032 ft 508 kts 156°
2026-05-05 01:10 29.24981 -83.34008 35033 ft 503 kts 163°
2026-05-05 01:11 29.18495 -83.31157 35036 ft 499 kts 166°
2026-05-05 01:11 29.11999 -83.28351 35033 ft 499 kts 166°
2026-05-05 01:12 29.05498 -83.25542 35024 ft 499 kts 166°
2026-05-05 01:12 28.98985 -83.22735 35043 ft 500 kts 166°
2026-05-05 01:13 28.92479 -83.19935 35048 ft 500 kts 166°
2026-05-05 01:13 28.86020 -83.17154 35043 ft 499 kts 166°
2026-05-05 01:14 28.79524 -83.14371 35053 ft 498 kts 166°
2026-05-05 01:14 28.73045 -83.11592 35027 ft 497 kts 166°
2026-05-05 01:15 28.66587 -83.08824 35031 ft 496 kts 166°
2026-05-05 01:15 28.60136 -83.06061 35033 ft 495 kts 166°
2026-05-05 01:16 28.53686 -83.03303 35031 ft 495 kts 166°
2026-05-05 01:16 28.47245 -83.00557 34991 ft 494 kts 166°
2026-05-05 01:17 28.40802 -82.97820 35026 ft 494 kts 166°
2026-05-05 01:17 28.34362 -82.95077 35030 ft 494 kts 166°
2026-05-05 01:18 28.27852 -82.92878 35026 ft 481 kts 179°
2026-05-05 01:18 28.21254 -82.91830 35022 ft 479 kts 180°
2026-05-05 01:19 28.14648 -82.90768 35017 ft 480 kts 180°
2026-05-05 01:19 28.08031 -82.89700 35040 ft 480 kts 180°
2026-05-05 01:20 28.01412 -82.88630 35046 ft 480 kts 180°
2026-05-05 01:20 27.94844 -82.87581 35045 ft 480 kts 180°
2026-05-05 01:21 27.88233 -82.86525 35031 ft 480 kts 180°
2026-05-05 01:21 27.81624 -82.85465 35006 ft 480 kts 180°
2026-05-05 01:22 27.75011 -82.84412 35007 ft 480 kts 180°
2026-05-05 01:22 27.68559 -82.83239 35016 ft 482 kts 178°
2026-05-05 01:23 27.63018 -82.82134 35013 ft 483 kts 178°
2026-05-05 01:23 27.56402 -82.80825 35014 ft 482 kts 178°
2026-05-05 01:24 27.49775 -82.79562 35026 ft 487 kts 178°
2026-05-05 01:24 27.42984 -82.78289 35021 ft 501 kts 178°
2026-05-05 01:25 27.36141 -82.76998 35041 ft 501 kts 178°
2026-05-05 01:25 27.29266 -82.75692 35033 ft 501 kts 178°
2026-05-05 01:26 27.22376 -82.74379 35033 ft 503 kts 178°
2026-05-05 01:26 27.15473 -82.73074 35029 ft 503 kts 178°
2026-05-05 01:27 27.08572 -82.71773 35020 ft 503 kts 178°
2026-05-05 01:27 27.01671 -82.70473 35019 ft 503 kts 178°
2026-05-05 01:28 26.94829 -82.68569 34989 ft 516 kts 163°
2026-05-05 01:28 26.91603 -82.66745 34994 ft 524 kts 152°
2026-05-05 01:28 26.88627 -82.64355 35000 ft 528 kts 145°
2026-05-05 01:29 26.82847 -82.59270 35004 ft 529 kts 145°
2026-05-05 01:29 26.77041 -82.54214 35002 ft 529 kts 146°
2026-05-05 01:30 26.71220 -82.49161 35010 ft 530 kts 146°
2026-05-05 01:30 26.65396 -82.44105 34979 ft 530 kts 146°
2026-05-05 01:31 26.59573 -82.39048 34999 ft 530 kts 145°
2026-05-05 01:31 26.53760 -82.34004 35022 ft 529 kts 145°
2026-05-05 01:32 26.47945 -82.28967 35026 ft 528 kts 146°
2026-05-05 01:32 26.42136 -82.23950 35027 ft 528 kts 146°
2026-05-05 01:33 26.36323 -82.18932 35029 ft 528 kts 146°
2026-05-05 01:33 26.30514 -82.13925 35005 ft 527 kts 145°
2026-05-05 01:34 26.24713 -82.08922 35019 ft 527 kts 145°
2026-05-05 01:34 26.21806 -82.06417 34447 ft 532 kts 145°
2026-05-05 01:34 26.18846 -82.03876 33435 ft 539 kts 145°
2026-05-05 01:35 26.15895 -82.01347 32911 ft 532 kts 145°
2026-05-05 01:35 26.12970 -81.98837 32285 ft 530 kts 145°
2026-05-05 01:35 26.10058 -81.96334 31668 ft 529 kts 145°
2026-05-05 01:35 26.07150 -81.93835 31060 ft 528 kts 145°
2026-05-05 01:36 26.04275 -81.91372 30470 ft 528 kts 145°
2026-05-05 01:36 26.01363 -81.88882 29828 ft 528 kts 145°
2026-05-05 01:36 25.98462 -81.86403 29262 ft 524 kts 145°
2026-05-05 01:36 25.95585 -81.83944 28691 ft 519 kts 145°
2026-05-05 01:37 25.92739 -81.81511 28144 ft 514 kts 146°
2026-05-05 01:37 25.89916 -81.79106 27639 ft 508 kts 147°
2026-05-05 01:37 25.86907 -81.77137 27255 ft 497 kts 161°
2026-05-05 01:37 25.83671 -81.76016 26697 ft 479 kts 176°
2026-05-05 01:38 25.80398 -81.75763 26169 ft 465 kts 189°
2026-05-05 01:38 25.77176 -81.75909 25636 ft 461 kts 189°
2026-05-05 01:38 25.73985 -81.76052 25085 ft 456 kts 189°
2026-05-05 01:38 25.70829 -81.76187 24513 ft 452 kts 189°
2026-05-05 01:39 25.67706 -81.76314 24020 ft 446 kts 189°
2026-05-05 01:39 25.64619 -81.76436 23407 ft 443 kts 189°
2026-05-05 01:39 25.61559 -81.76557 22830 ft 437 kts 189°
2026-05-05 01:39 25.58537 -81.76679 22306 ft 432 kts 189°
2026-05-05 01:40 25.55552 -81.76804 21788 ft 427 kts 189°
2026-05-05 01:40 25.52599 -81.76932 21270 ft 422 kts 189°
2026-05-05 01:40 25.49679 -81.77060 20761 ft 418 kts 189°
2026-05-05 01:40 25.46781 -81.77186 20267 ft 414 kts 189°
2026-05-05 01:41 25.43915 -81.77306 19778 ft 411 kts 188°
2026-05-05 01:41 25.41069 -81.77421 19279 ft 408 kts 188°
2026-05-05 01:41 25.38248 -81.77536 18801 ft 404 kts 188°
2026-05-05 01:41 25.35446 -81.77653 18323 ft 401 kts 188°
2026-05-05 01:42 25.32664 -81.77769 17806 ft 398 kts 188°
2026-05-05 01:42 25.29917 -81.77881 17350 ft 393 kts 188°
2026-05-05 01:42 25.27202 -81.77992 16930 ft 388 kts 188°
2026-05-05 01:42 25.24560 -81.78097 16788 ft 372 kts 188°
2026-05-05 01:43 25.22014 -81.78200 16437 ft 365 kts 188°
2026-05-05 01:43 25.19490 -81.78310 15956 ft 362 kts 188°
2026-05-05 01:43 25.16974 -81.78422 15451 ft 361 kts 188°
2026-05-05 01:43 25.14493 -81.78531 14961 ft 360 kts 188°
2026-05-05 01:44 25.11994 -81.78639 14476 ft 359 kts 188°
2026-05-05 01:44 25.09502 -81.78744 13979 ft 358 kts 187°
2026-05-05 01:44 25.07018 -81.78849 13461 ft 356 kts 187°
2026-05-05 01:44 25.04549 -81.78952 12930 ft 354 kts 187°
2026-05-05 01:45 25.02094 -81.79054 12392 ft 352 kts 187°
2026-05-05 01:45 24.99652 -81.79153 11881 ft 349 kts 186°
2026-05-05 01:45 24.97228 -81.79253 11372 ft 347 kts 186°
2026-05-05 01:45 24.94825 -81.79352 10874 ft 344 kts 186°
2026-05-05 01:46 24.92449 -81.79450 10368 ft 338 kts 186°
2026-05-05 01:46 24.90154 -81.79542 10065 ft 319 kts 187°
2026-05-05 01:46 24.88075 -81.79947 9928 ft 291 kts 203°
2026-05-05 01:46 24.86307 -81.80918 9714 ft 281 kts 216°
2026-05-05 01:47 24.84671 -81.82068 9203 ft 277 kts 216°
2026-05-05 01:47 24.83061 -81.83213 8703 ft 275 kts 216°
2026-05-05 01:47 24.81464 -81.84354 8204 ft 273 kts 216°
2026-05-05 01:47 24.79879 -81.85485 7724 ft 272 kts 215°
2026-05-05 01:48 24.78295 -81.86611 7320 ft 270 kts 215°
2026-05-05 01:48 24.76717 -81.87726 6941 ft 268 kts 215°
2026-05-05 01:48 24.75150 -81.88834 6596 ft 265 kts 215°
2026-05-05 01:48 24.73615 -81.89920 6311 ft 260 kts 215°
2026-05-05 01:49 24.72108 -81.90986 6011 ft 255 kts 215°
2026-05-05 01:49 24.70649 -81.92019 5723 ft 250 kts 214°
2026-05-05 01:49 24.69209 -81.93037 5516 ft 241 kts 214°
2026-05-05 01:49 24.67832 -81.94010 5414 ft 229 kts 214°
2026-05-05 01:50 24.66511 -81.94944 5311 ft 224 kts 214°
2026-05-05 01:50 24.65205 -81.95868 5211 ft 223 kts 214°
2026-05-05 01:50 24.63833 -81.96658 5115 ft 225 kts 199°
2026-05-05 01:50 24.62279 -81.96906 4852 ft 229 kts 181°
2026-05-05 01:51 24.60678 -81.96877 4507 ft 230 kts 180°
2026-05-05 01:51 24.59079 -81.96847 4186 ft 230 kts 180°
2026-05-05 01:51 24.57482 -81.96816 3869 ft 229 kts 179°
2026-05-05 01:51 24.55968 -81.96339 3548 ft 230 kts 144°
2026-05-05 01:52 24.55090 -81.94921 3248 ft 228 kts 104°
2026-05-05 01:52 24.54942 -81.93197 2954 ft 227 kts 88°
2026-05-05 01:52 24.55039 -81.91470 2656 ft 226 kts 84°
2026-05-05 01:52 24.55176 -81.89756 2347 ft 225 kts 85°
2026-05-05 01:53 24.55293 -81.88065 2038 ft 218 kts 85°
2026-05-05 01:53 24.55376 -81.86446 1751 ft 207 kts 87°
2026-05-05 01:53 24.55434 -81.84914 1510 ft 194 kts 87°
2026-05-05 01:53 24.55475 -81.83468 1233 ft 183 kts 88°
2026-05-05 01:54 24.55506 -81.82150 1077 ft 159 kts 88°
2026-05-05 01:54 24.55555 -81.81005 900 ft 143 kts 87°
2026-05-05 01:54 24.55577 -81.79929 683 ft 138 kts 90°
2026-05-05 01:54 24.55585 -81.78877 463 ft 137 kts 90°
2026-05-05 01:55 24.55597 -81.77831 249 ft 137 kts 91°
2026-05-05 01:55 24.55605 -81.76826 57 ft 136 kts 92°
2026-05-05 01:55 24.55614 -81.75914 12 ft 95 kts 89°
2026-05-05 01:55 24.55617 -81.75471 15 ft 46 kts 89°
2026-05-05 01:56 24.55608 -81.75252 15 ft 12 kts 135°
2026-05-05 01:56 24.55534 -81.75265 12 ft 12 kts 248°
2026-05-05 01:56 24.55527 -81.75309 12 ft 3 kts 254°
2026-05-05 01:56 24.55522 -81.75316 12 ft 0 kts 224°
2026-05-05 01:57 24.55520 -81.75317 12 ft 3 kts 221°
2026-05-05 01:58 24.55493 -81.75353 12 ft 7 kts 250°
2026-05-05 01:58 24.55490 -81.75441 12 ft 16 kts 269°
2026-05-05 01:58 24.55489 -81.75546 12 ft 9 kts 269°
2026-05-05 01:58 24.55455 -81.75576 12 ft 5 kts 177°
2026-05-05 01:59 24.55439 -81.75576 12 ft 0 kts 179°
2026-05-05 01:59 24.55437 -81.75576 12 ft 0 kts 179°